DL1AIE-13 Weather Reports


time (UTC)temp
F
wind
direction
speed
knots
gust
knots
rain 1hr
in
rain 24hr
in
rain mn
in
humidity
%
barometer
mb
20260505184720 58 276 0.9 0.9 0.01 0.08 0.08 98 1007.0
20260505183716 58 243 0.0 0.9 0.02 0.08 0.08 98 1007.1
20260505182733 58 231 0.9 0.9 0.02 0.08 0.08 98 1007.2
20260505181729 59 252 1.7 1.7 0.02 0.08 0.08 98 1007.2
20260505180725 59 248 1.7 2.6 0.01 0.07 0.07 98 1007.2
20260505175722 59 0.0 0.0 0.01 0.07 0.07 98 1007.3
20260505174718 59 0.0 0.0 0.02 0.07 0.07 98 1007.3
20260505173735 59 223 0.0 1.7 0.02 0.06 0.06 97 1007.3
20260505172731 59 239 0.9 1.7 0.03 0.06 0.06 97 1007.2
20260505171728 59 252 1.7 3.5 0.03 0.06 0.06 97 1007.2
20260505170725 59 247 0.9 2.6 0.04 0.06 0.06 97 1007.3
20260505165721 59 266 0.0 0.9 0.05 0.06 0.06 97 1007.3
20260505164717 59 261 0.0 0.9 0.05 0.05 0.05 97 1007.4
20260505163734 59 268 0.9 1.7 0.04 0.04 0.04 96 1007.5
20260505162730 59 256 0.9 1.7 0.03 0.03 0.03 96 1007.6
20260505161727 59 261 1.7 3.5 0.03 0.03 0.03 95 1007.5
20260505160726 59 221 1.7 2.6 0.02 0.02 0.02 95 1007.6
20260505152729 60 255 5.2 7.0 0.00 0.00 0.00 91 1007.3
20260505151725 60 258 5.2 7.8 0.00 0.00 0.00 88 1007.4
20260505150722 60 269 5.2 7.8 0.00 0.00 0.00 89 1007.3
20260505124732 68 327 2.6 5.2 0.00 0.00 0.00 60 1007.2
20260505123729 70 320 1.7 3.5 0.00 0.00 0.00 56 1007.5
20260505122728 71 334 1.7 2.6 0.00 0.00 0.00 57 1007.5
20260505121722 70 356 0.9 1.7 0.00 0.00 0.00 58 1007.6
20260505120718 70 341 2.6 7.0 0.00 0.00 0.00 59 1007.5
20260505115735 71 343 0.9 2.6 0.00 0.00 0.00 55 1007.7
20260505114731 69 325 3.5 6.1 0.00 0.00 0.00 59 1007.9
20260505113730 70 338 1.7 3.5 0.00 0.00 0.00 57 1007.9
20260505112724 70 325 2.6 3.5 0.00 0.00 0.00 57 1008.1
20260505111720 70 328 2.6 6.1 0.00 0.00 0.00 56 1008.2
20260505110717 71 335 2.6 5.2 0.00 0.00 0.00 56 1008.2
20260505101719 68 359 0.9 2.6 0.00 0.00 0.00 59 1008.8
20260505100735 69 359 2.6 5.2 0.00 0.00 0.00 62 1008.8
20260505095731 68 22 1.7 2.6 0.00 0.00 0.00 66 1008.8
20260505094728 68 6 2.6 3.5 0.00 0.00 0.00 66 1008.9
20260505093724 67 352 1.7 3.5 0.00 0.00 0.00 69 1008.8
20260505092720 69 1 0.9 2.6 0.00 0.00 0.00 66 1009.0
20260505091716 67 8 0.0 0.9 0.00 0.00 0.00 69 1009.0
20260505090733 66 12 0.9 1.7 0.00 0.00 0.00 72 1009.2
20260505085729 66 14 0.9 2.6 0.00 0.00 0.00 69 1009.1
20260505084725 65 15 0.9 1.7 0.00 0.00 0.00 70 1009.5
20260505083722 64 26 2.6 5.2 0.00 0.00 0.00 73 1009.4
20260505082718 65 14 0.9 3.5 0.00 0.00 0.00 72 1009.3
20260505081735 64 19 1.7 3.5 0.00 0.00 0.00 75 1009.5
20260505080731 63 8 0.0 0.9 0.00 0.00 0.00 78 1009.5
20260505075728 61 11 0.0 0.9 0.00 0.00 0.00 81 1009.7
20260505074724 60 13 0.0 1.7 0.00 0.00 0.00 82 1009.7
20260505073720 60 0.0 0.0 0.00 0.00 0.00 84 1009.8
20260505072717 59 13 0.9 1.7 0.00 0.00 0.00 85 1010.0
20260505071733 59 16 1.7 2.6 0.00 0.00 0.00 86 1010.0
20260505070730 59 18 1.7 2.6 0.00 0.00 0.00 87 1010.1
20260505065726 58 21 1.7 3.5 0.00 0.00 0.00 86 1010.0
20260505064723 58 16 1.7 2.6 0.00 0.00 0.00 87 1009.9
20260505063723 58 0.0 0.0 0.00 0.00 0.00 87 1009.9
20260505062735 58 6 0.0 0.9 0.00 0.00 0.00 89 1010.0
20260505061732 57 7 0.0 1.7 0.00 0.00 0.00 90 1010.0
20260505060728 57 6 0.0 0.9 0.00 0.00 0.00 91 1010.0
20260505055724 57 6 0.0 0.9 0.00 0.00 0.00 93 1010.2
20260505054720 56 0.0 0.0 0.00 0.00 0.00 93 1010.1
20260505053718 56 0.0 0.0 0.00 0.00 0.00 94 1010.0
20260505052734 56 0.0 0.0 0.00 0.00 0.00 94 1010.0
20260505051730 56 0.0 0.0 0.00 0.00 0.00 95 1010.0
20260505050726 56 0.0 0.0 0.00 0.00 0.00 95 1009.9
20260505041728 55 0.0 0.0 0.00 0.00 0.00 95 1010.2
20260505040728 55 0.0 0.0 0.00 0.00 0.00 96 1010.2
20260505035721 55 0.0 0.0 0.00 0.00 0.00 96 1010.3
20260505034717 55 0.0 0.0 0.00 0.00 0.00 96 1010.3
20260505033734 55 0.0 0.0 0.00 0.00 0.00 95 1010.4
20260505032730 55 0.0 0.0 0.00 0.00 0.00 95 1010.5
20260505031726 55 11 0.0 0.9 0.00 0.00 0.00 95 1010.6
20260505030723 55 11 0.9 0.9 0.00 0.00 0.00 95 1010.6
20260505025719 56 0.0 0.0 0.00 0.00 0.00 95 1010.7
20260505024735 56 0.0 0.0 0.00 0.00 0.00 94 1010.9
20260505023732 56 0.0 0.0 0.00 0.00 0.00 94 1010.9
20260505022728 56 0.0 0.0 0.00 0.00 0.00 94 1011.2
20260505021724 56 0.0 0.0 0.00 0.00 0.00 94 1011.2
20260505020721 56 0.0 0.0 0.00 0.00 0.00 94 1011.2
20260505015717 56 0.0 0.0 0.00 0.00 0.00 93 1011.3
20260505014734 56 26 1.7 2.6 0.00 0.00 0.00 93 1011.2
20260505013730 56 340 0.0 0.9 0.00 0.00 0.00 92 1011.3
20260505012727 56 0.0 0.0 0.00 0.00 0.00 92 1011.2
20260505011723 56 0.0 0.0 0.00 0.00 0.00 92 1011.3
20260505010720 57 0.0 0.0 0.00 0.00 0.00 92 1011.4
20260505005716 57 325 0.9 1.7 0.00 0.00 0.00 92 1011.5
20260505004732 57 0.0 0.0 0.00 0.00 0.00 92 1011.8
20260505003732 57 273 0.0 0.9 0.00 0.00 0.00 92 1012.0
20260505002725 57 0.0 0.0 0.00 0.00 0.00 92 1012.1
20260505001721 57 0.0 0.0 0.00 0.00 0.00 91 1012.1
20260505000718 57 272 0.9 1.7 0.00 0.00 0.00 91 1012.3
20260504235735 58 41 1.7 1.7 0.00 0.00 0.00 89 1012.1
20260504234731 58 45 2.6 2.6 0.00 0.00 0.00 89 1012.3
20260504233727 58 295 0.9 1.7 0.00 0.00 0.00 88 1012.4
20260504232723 58 354 0.9 2.6 0.00 0.00 0.00 87 1012.5
20260504231719 59 337 3.5 5.2 0.00 0.00 0.00 87 1012.7
20260504230716 58 327 2.6 3.5 0.00 0.00 0.00 88 1012.5
20260504225732 58 332 2.6 3.5 0.00 0.00 0.00 88 1012.7
20260504224729 58 351 0.9 2.6 0.00 0.00 0.00 89 1012.7
20260504223725 58 342 1.7 3.5 0.00 0.00 0.00 90 1013.0
20260504222721 58 0.0 0.0 0.00 0.00 0.00 90 1013.1
20260504221718 58 340 0.0 0.9 0.00 0.00 0.00 88 1013.2
20260504220737 58 0.0 0.0 0.00 0.00 0.00 87 1013.4
20260504215731 59 334 1.7 3.5 0.00 0.00 0.00 87 1013.4
20260504214726 59 329 3.5 5.2 0.00 0.00 0.00 86 1013.4
20260504213723 59 327 4.3 5.2 0.00 0.00 0.00 86 1013.4
20260504212720 59 317 3.5 5.2 0.00 0.00 0.00 86 1013.6
20260504211716 60 317 3.5 5.2 0.00 0.00 0.00 84 1013.5
20260504210732 60 321 2.6 2.6 0.00 0.00 0.00 82 1013.5
20260504205729 60 325 1.7 2.6 0.00 0.00 0.00 82 1013.6
20260504204725 60 324 0.9 1.7 0.00 0.00 0.00 81 1013.5
20260504203721 60 320 2.6 3.5 0.00 0.00 0.00 81 1013.6
20260504202718 61 306 2.6 3.5 0.00 0.00 0.00 80 1013.6
20260504201734 61 298 3.5 5.2 0.00 0.00 0.00 77 1013.6
20260504200730 61 282 0.9 2.6 0.00 0.00 0.00 77 1013.4
20260504195727 61 275 0.0 0.9 0.00 0.00 0.00 78 1013.3
20260504194723 61 0.0 0.0 0.00 0.00 0.00 77 1013.0
20260504193719 61 276 0.0 1.7 0.00 0.00 0.00 76 1012.7
20260504192735 62 0.0 0.0 0.00 0.00 0.00 75 1012.8
20260504191732 62 333 0.0 0.9 0.00 0.00 0.00 73 1012.6
20260504190731 62 338 0.9 1.7 0.00 0.00 0.00 74 1012.6
20260504185725 62 325 1.7 2.6 0.00 0.00 0.00 75 1012.6